Theta_e
285 285 285 285 285 285 284 284 284 284 283 284 283 283 283 284 284 284 284 283 283 283 283 283 283 283 283 283 284 283 283 283 283 284 283 284 283 284 284 284 284 284
285 285 285 285 284 284 284 284 284 283 283 283 283 283 283 283 283 283 283 282 283 282 283 282 282 282 282 282 282 282 282 282 282 283 282 283 283 283 283 283 283 284
284 284 284 283 283 283 283 283 283 283 282 282 282 282 282 283 282 282 282 282 281 281 281 281 281 281 281 281 281 281 281 281 281 282 282 282 282 282 282 282 282 283
283 283 283 283 283 282 283 282 282 282 282 281 281 281 281 281 281 280 280 280 280 280 280 280 280 280 280 280 280 280 280 280 280 281 280 281 281 281 281 282 282 282
283 282 282 282 282 282 281 281 280 280 280 280 280 280 279 279 279 279 279 279 279 279 279 279 279 279 279 279 279 279 279 279 280 280 279 279 280 280 280 281 280 280
281 282 281 281 281 280 280 279 279 278 278 278 278 278 277 277 277 277 277 277 277 277 277 277 277 277 278 277 277 277 277 278 278 278 278 278 278 279 280 280 279 279
280 280 279 279 279 279 278 278 278 277 277 277 276 276 276 276 276 276 276 276 276 276 275 276 275 276 276 276 276 276 276 276 276 277 276 277 277 277 278 278 278 278
279 279 279 278 278 277 277 276 276 275 275 275 274 274 275 274 274 275 274 275 274 274 274 274 274 274 274 274 274 274 274 275 275 275 275 275 275 275 276 277 277 277
278 277 277 277 276 276 275 274 274 274 274 273 273 273 274 273 273 273 273 273 273 273 273 273 273 273 273 273 273 273 273 273 274 273 273 273 274 274 275 275 275 275
277 276 276 276 275 274 273 272 272 272 272 272 272 272 272 272 272 272 272 272 271 272 272 271 271 271 271 272 272 272 272 272 272 272 273 273 273 273 274 274 274 274
275 275 274 274 273 272 272 271 271 271 271 271 271 271 271 271 271 271 271 271 270 270 270 270 270 270 270 270 271 271 271 271 272 272 272 273 273 273 273 273 273 273
274 274 273 272 272 271 271 270 270 270 270 270 270 269 270 269 269 269 269 269 269 269 269 269 269 269 269 269 270 270 271 271 272 272 272 272 272 273 273 273 273 273
273 273 272 271 271 270 270 269 269 269 268 268 268 268 268 268 268 268 268 268 268 268 268 268 268 268 268 268 269 270 271 271 272 272 272 272 272 272 273 273 273 273
272 271 271 270 270 269 268 268 268 267 267 267 267 266 266 266 266 266 267 267 267 267 267 267 267 267 267 268 269 270 271 272 272 272 272 272 272 272 272 272 272 272
271 270 270 269 268 267 267 266 266 266 266 266 265 265 265 266 266 266 265 265 266 266 266 266 266 266 266 268 270 271 272 272 272 271 271 271 271 272 272 272 272 272
269 269 268 268 267 266 265 265 265 265 265 264 264 264 264 265 265 265 265 264 264 265 265 265 265 265 266 271 273 272 272 272 272 271 272 271 271 271 271 271 271 271
268 267 267 266 265 265 264 264 264 263 263 263 263 263 263 263 264 264 264 264 264 264 263 264 264 264 269 272 273 274 273 272 271 271 271 271 270 270 269 270 270 271
267 266 265 265 264 264 263 263 262 262 262 262 262 262 262 263 263 263 263 263 263 263 263 263 263 266 269 271 272 273 274 272 272 271 270 270 270 270 270 269 269 269
265 265 264 263 263 262 262 262 261 261 261 261 261 262 262 262 262 262 262 262 262 262 262 262 262 265 268 271 272 273 274 273 271 271 270 270 270 269 269 268 268 268
264 263 263 263 262 262 262 261 261 261 261 261 261 261 261 261 261 261 261 261 261 261 261 261 262 264 269 271 272 272 273 273 271 271 270 269 269 268 268 268 268 267
264 263 262 262 262 261 261 261 260 260 260 261 260 261 260 260 260 259 260 260 260 260 260 260 261 266 269 270 271 272 273 273 270 269 268 268 268 268 268 268 268 268
262 262 261 261 261 260 259 260 260 260 259 260 260 260 260 260 260 260 259 259 259 259 259 259 260 265 267 269 271 272 273 270 269 268 267 267 268 268 268 268 268 268
263 261 261 260 260 259 259 259 260 259 259 259 258 259 259 259 258 259 259 259 258 258 258 259 259 262 267 269 270 271 271 268 268 268 267 267 267 268 269 269 269 269
263 261 260 259 259 258 258 260 259 259 258 258 258 258 258 258 258 258 258 258 258 258 258 258 259 262 266 268 270 271 270 268 268 267 267 267 268 269 269 269 269 270
261 260 260 259 258 259 258 257 258 257 258 258 258 257 257 258 257 257 257 257 258 258 259 259 259 260 265 267 269 270 270 268 268 268 267 267 268 268 269 269 269 271
260 259 259 258 258 257 257 257 257 256 257 257 257 257 257 257 257 257 256 256 257 257 257 258 258 259 261 267 269 270 271 269 269 268 267 267 268 268 268 269 269 270
Wind_Speed
7 6 7 6 6 6 6 7 6 7 7 6 6 6 6 5 6 7 7 6 7 7 7 7 7 7 7 7 7 6 6 6 6 6 6 6 6 6 6 7 7 6
8 7 6 6 6 6 6 6 6 6 6 6 6 5 5 6 6 6 7 7 7 8 7 7 8 8 7 7 7 6 6 6 7 5 7 8 6 6 6 8 7 6
8 8 8 8 6 7 6 5 5 5 5 5 6 6 6 5 6 6 7 6 6 7 7 7 7 7 7 7 6 6 6 7 7 7 6 7 6 6 6 6 6 7
7 7 7 7 6 6 5 6 5 5 5 6 7 6 5 5 5 6 6 6 6 6 6 7 7 7 7 7 7 6 6 6 6 6 6 5 6 6 7 6 6 6
7 7 6 6 6 6 5 7 7 6 6 6 6 6 5 6 6 6 6 6 6 6 6 6 6 6 6 6 6 5 6 5 6 6 6 6 6 6 6 6 7 7
7 6 5 6 5 6 7 7 6 6 5 5 6 5 5 5 5 5 6 5 5 5 6 6 7 6 7 7 6 6 6 6 7 7 7 7 7 6 6 6 7 8
6 6 6 5 6 7 7 6 5 5 5 4 4 6 5 5 6 6 6 6 6 6 7 7 7 7 6 6 6 6 6 6 7 7 7 7 7 8 7 8 8 8
6 5 5 6 7 6 6 6 6 6 5 5 6 5 5 5 6 5 5 6 6 6 6 6 6 7 7 6 7 7 7 5 6 7 8 8 7 8 8 7 8 9
6 5 5 6 7 6 7 5 4 4 4 4 4 4 4 5 5 5 5 5 5 5 5 5 6 6 6 6 6 7 7 7 7 7 8 8 8 8 8 8 8 8
6 6 7 6 6 5 5 5 4 4 4 5 5 4 5 5 5 5 5 5 5 5 5 6 6 6 6 5 6 7 7 7 7 7 7 7 8 9 9 9 9 9
6 5 6 6 6 5 5 5 5 4 5 5 5 5 5 4 4 5 5 5 5 5 6 6 6 6 7 6 6 6 7 7 8 7 7 8 8 8 8 9 9 9
5 5 5 6 5 5 5 5 5 5 4 4 4 4 4 4 4 4 4 5 5 5 5 5 5 6 6 6 7 7 7 7 7 8 8 8 8 8 8 8 8 9
4 5 5 5 5 5 4 4 4 4 3 3 4 3 4 3 4 4 4 4 4 5 5 5 6 6 6 7 7 7 7 8 8 9 9 8 8 9 9 8 9 9
4 5 5 5 4 4 4 3 3 3 3 3 3 4 4 4 5 5 4 4 4 4 5 5 6 6 6 6 7 8 9 10 9 9 10 10 10 10 10 10 10 10
5 4 4 4 4 4 3 3 3 3 3 3 3 3 3 4 4 4 4 4 4 4 5 5 5 5 5 6 10 11 9 10 10 10 11 11 11 11 11 10 10 10
4 4 4 3 3 3 3 3 3 3 3 3 4 4 3 4 4 4 4 5 5 5 5 4 5 4 7 15 14 11 11 9 10 10 10 11 11 11 11 11 11 10
4 3 3 3 3 3 3 3 4 3 3 3 3 3 4 4 4 4 5 5 5 6 6 5 5 5 14 16 16 16 12 10 10 11 10 10 10 11 11 12 11 12
4 3 3 3 2 2 3 3 3 3 3 3 3 4 4 4 4 4 5 5 5 5 6 6 6 10 16 16 17 16 15 11 10 10 10 10 10 11 11 11 12 12
3 3 2 2 2 2 2 2 3 3 3 3 4 4 3 4 4 5 5 5 5 6 7 7 7 12 16 17 17 17 17 14 9 9 10 10 10 11 11 11 11 12
3 2 2 2 2 2 2 2 3 3 2 2 2 3 3 4 4 5 4 5 6 6 7 7 8 11 16 17 16 17 17 15 10 10 9 10 11 11 10 11 12 12
3 2 2 2 2 2 2 2 2 2 2 2 2 3 4 4 4 4 4 4 5 6 6 7 7 14 15 17 16 17 17 14 8 9 9 9 10 11 11 12 12 12
3 3 2 2 2 1 2 2 1 1 2 2 2 3 2 3 3 3 4 5 5 6 6 7 8 14 16 16 17 17 18 10 8 9 9 9 10 11 12 12 12 12
4 3 3 2 2 1 1 1 1 1 2 1 2 3 4 3 4 4 4 5 5 5 7 8 7 11 16 17 17 18 14 8 9 8 9 10 11 12 12 12 11 12
4 4 4 3 2 1 1 1 0 1 1 1 3 4 4 4 4 4 3 4 5 6 6 8 7 11 17 17 18 17 15 10 9 9 10 11 11 11 10 11 14 21
4 3 3 3 1 1 0 1 1 1 2 2 2 3 4 4 4 4 4 3 4 6 10 10 8 10 15 17 18 17 14 9 8 9 9 10 10 11 12 12 14 15
3 4 3 2 2 1 0 1 1 1 2 2 3 2 4 4 4 4 5 4 4 5 5 6 8 7 10 18 17 18 18 11 9 9 10 11 11 11 10 10 11 11
Wind_Direction
88 86 89 84 79 77 74 71 62 65 58 54 56 48 45 35 30 35 32 31 33 33 29 27 23 23 20 18 15 13 18 14 11 11 4 2 0 2 356 355 352 345
88 89 89 86 77 66 63 65 68 69 67 59 53 48 44 35 26 31 27 27 27 30 24 24 22 20 16 15 11 9 8 9 6 1 359 359 358 354 352 347 342 335
85 82 82 82 85 79 76 67 67 64 66 60 52 45 38 32 27 26 26 25 24 25 22 18 19 16 12 10 7 6 7 1 360 356 354 352 350 349 342 337 335 333
75 82 90 88 86 85 76 77 67 63 60 56 47 37 36 32 29 29 27 22 25 23 22 19 18 10 9 5 2 4 359 358 348 346 346 346 346 343 337 331 326 324
88 83 77 80 80 82 82 75 65 56 55 58 52 39 35 34 29 31 27 20 25 21 19 19 16 11 6 6 360 358 352 348 347 350 345 339 336 338 329 328 325 322
73 81 82 88 88 87 79 74 70 62 59 57 50 42 38 34 35 34 25 23 22 22 16 17 13 11 8 4 357 359 350 346 343 344 339 334 330 330 325 324 319 318
100 97 94 91 87 80 81 75 70 63 56 54 48 42 32 29 31 27 22 20 19 19 18 11 10 5 3 357 354 350 348 340 339 340 336 330 328 325 327 323 321 315
105 100 98 91 87 82 80 74 59 53 48 44 51 38 35 34 30 22 20 15 15 14 11 9 5 2 356 353 348 345 342 340 336 336 332 327 328 323 325 323 317 312
105 100 100 91 84 75 74 72 71 67 57 59 52 42 37 40 27 23 18 15 17 13 9 6 1 355 348 344 339 336 332 330 330 329 325 323 321 317 316 313 310 307
102 96 89 90 91 92 87 73 68 61 48 49 39 30 33 25 24 16 14 13 10 11 8 1 356 347 341 336 331 330 327 323 323 319 313 311 311 312 315 314 312 312
101 103 106 99 93 86 74 64 52 47 38 36 29 23 23 15 14 12 11 13 6 6 357 358 352 341 334 331 330 329 326 321 320 318 317 314 312 311 312 314 312 310
120 112 100 95 89 78 67 57 51 44 37 29 33 14 20 9 12 11 5 6 358 358 346 346 341 333 328 330 331 329 324 319 315 313 312 312 310 312 314 313 310 309
111 103 98 92 87 83 77 71 62 54 40 38 24 21 20 11 10 9 357 3 353 356 348 344 337 330 326 327 327 326 322 321 323 322 320 319 319 317 317 315 313 313
103 100 96 96 100 98 90 84 73 55 46 33 33 22 21 16 6 359 355 357 351 347 344 341 330 322 327 324 321 327 326 325 322 321 320 318 317 317 319 318 316 315
113 103 105 106 102 101 92 81 69 55 42 41 32 24 16 10 360 352 351 351 349 343 341 333 326 324 328 327 329 328 326 320 320 318 317 316 316 316 316 315 314 312
108 102 102 102 99 96 83 75 65 47 38 35 25 17 6 3 353 351 358 348 346 339 339 333 323 316 312 321 323 322 320 317 313 312 313 313 313 313 312 311 310 310
108 107 108 102 88 82 74 64 49 36 34 27 17 7 358 0 348 355 357 346 344 339 333 329 316 309 317 322 322 321 318 313 310 309 310 309 307 307 307 309 308 308
113 119 110 100 88 74 73 67 54 39 30 21 2 1 355 347 350 355 344 341 335 333 329 321 312 312 321 320 319 318 316 313 310 307 306 303 303 302 303 305 306 306
126 127 121 117 100 102 82 73 67 34 26 9 2 345 334 346 345 340 334 337 330 327 324 319 307 312 316 316 315 316 315 313 305 302 299 299 301 302 302 302 301 301
139 140 139 136 137 99 80 66 57 26 8 342 339 336 338 329 325 326 329 328 325 319 313 309 304 305 312 312 314 312 311 310 301 301 299 299 299 297 294 294 295 295
151 153 149 146 126 95 78 63 49 10 348 341 342 326 327 321 321 318 313 313 309 309 304 300 294 306 309 311 310 310 308 310 306 302 296 290 289 289 290 291 291 289
153 152 156 142 125 123 94 36 35 346 337 328 321 304 286 297 296 298 299 302 301 298 297 292 291 306 308 308 309 309 310 310 302 293 288 286 286 289 289 290 287 287
153 153 163 153 160 162 112 32 359 319 323 308 308 302 305 299 289 290 292 292 293 288 291 289 287 304 308 309 310 311 312 301 293 289 287 286 284 287 289 290 289 286
155 155 163 169 178 163 142 320 302 301 289 296 305 305 300 287 293 290 277 276 281 284 284 291 289 305 310 311 310 308 307 302 296 288 283 281 280 279 286 289 283 275
152 157 162 171 175 164 153 262 291 292 293 289 270 275 283 290 290 291 282 276 264 271 290 294 292 299 306 306 306 305 305 298 292 286 283 287 289 290 286 279 275 270
152 153 168 164 171 143 196 247 278 289 284 297 295 289 292 295 289 284 286 281 272 272 275 284 290 288 294 301 304 304 303 300 295 292 291 292 288 272 264 263 261 267